Time,TemperatureF,DewpointF,PressureIn,WindDirection,WindDirectionDegrees,WindSpeedMPH,WindSpeedGustMPH,Humidity,HourlyPrecipIn,Conditions,Clouds,dailyrainin,SoftwareType,DateUTC
2013-01-06 00:03:00,49.0,42.4,30.05,NE,45,0.0,6.0,78,0.00,,,0.00,Weather View 32 v70,2013-01-06 08:03:00,
2013-01-06 00:08:00,49.0,42.4,30.04,NE,45,2.0,6.0,78,0.00,,,0.00,Weather View 32 v70,2013-01-06 08:08:00,
2013-01-06 00:13:00,49.0,42.4,30.04,ENE,67,0.0,5.0,78,0.00,,,0.00,Weather View 32 v70,2013-01-06 08:13:00,
2013-01-06 00:18:00,49.0,43.1,30.04,ENE,67,0.0,5.0,80,0.00,,,0.00,Weather View 32 v70,2013-01-06 08:18:00,
2013-01-06 00:23:00,49.0,42.4,30.04,NE,45,0.0,5.0,78,0.02,,,0.02,Weather View 32 v70,2013-01-06 08:23:00,
2013-01-06 00:28:00,49.0,42.4,30.04,ENE,67,0.0,5.0,78,0.03,,,0.03,Weather View 32 v70,2013-01-06 08:28:00,
2013-01-06 00:33:00,49.0,43.1,30.03,ENE,67,0.0,6.0,80,0.04,,,0.04,Weather View 32 v70,2013-01-06 08:33:00,
2013-01-06 00:38:00,48.0,41.5,30.03,ENE,67,0.0,6.0,78,0.06,,,0.06,Weather View 32 v70,2013-01-06 08:38:00,
2013-01-06 00:43:00,48.0,41.5,30.04,ENE,67,0.0,6.0,78,0.06,,,0.06,Weather View 32 v70,2013-01-06 08:43:00,
2013-01-06 00:48:00,48.0,41.5,30.04,ENE,67,0.0,6.0,78,0.06,,,0.06,Weather View 32 v70,2013-01-06 08:48:00,
2013-01-06 00:53:00,47.0,40.5,30.04,ENE,67,1.0,6.0,78,0.06,,,0.06,Weather View 32 v70,2013-01-06 08:53:00,
2013-01-06 00:58:00,47.0,40.5,30.05,ENE,67,0.0,6.0,78,0.06,,,0.06,Weather View 32 v70,2013-01-06 08:58:00,
2013-01-06 01:03:00,47.0,40.5,30.05,ENE,67,0.0,6.0,78,0.07,,,0.07,Weather View 32 v70,2013-01-06 09:03:00,
2013-01-06 01:08:00,46.0,40.2,30.05,ENE,67,0.0,7.0,80,0.07,,,0.07,Weather View 32 v70,2013-01-06 09:08:00,
2013-01-06 01:13:00,46.0,39.8,30.05,NNE,22,0.0,9.0,79,0.07,,,0.07,Weather View 32 v70,2013-01-06 09:13:00,
2013-01-06 01:18:00,46.0,39.8,30.05,ENE,67,2.0,9.0,79,0.07,,,0.07,Weather View 32 v70,2013-01-06 09:18:00,
2013-01-06 01:23:00,46.0,39.8,30.05,NE,45,0.0,9.0,79,0.05,,,0.07,Weather View 32 v70,2013-01-06 09:23:00,
2013-01-06 01:28:00,46.0,39.8,30.05,NE,45,1.0,9.0,79,0.04,,,0.07,Weather View 32 v70,2013-01-06 09:28:00,
2013-01-06 01:33:00,45.0,38.9,30.05,NNE,22,0.0,11.0,79,0.03,,,0.07,Weather View 32 v70,2013-01-06 09:33:00,
2013-01-06 01:38:00,45.0,38.9,30.06,ENE,67,1.0,11.0,79,0.01,,,0.07,Weather View 32 v70,2013-01-06 09:38:00,
2013-01-06 01:43:00,45.0,39.8,30.06,ENE,67,1.0,11.0,82,0.01,,,0.07,Weather View 32 v70,2013-01-06 09:43:00,
2013-01-06 01:48:00,45.0,38.9,30.06,NE,45,0.0,11.0,79,0.01,,,0.07,Weather View 32 v70,2013-01-06 09:48:00,
2013-01-06 01:53:00,45.0,38.9,30.06,NE,45,0.0,11.0,79,0.01,,,0.07,Weather View 32 v70,2013-01-06 09:53:00,
2013-01-06 01:58:00,45.0,38.9,30.06,ENE,67,0.0,11.0,79,0.01,,,0.07,Weather View 32 v70,2013-01-06 09:58:00,
2013-01-06 02:03:00,45.0,38.9,30.06,ENE,67,0.0,11.0,79,0.00,,,0.07,Weather View 32 v70,2013-01-06 10:03:00,
2013-01-06 02:07:00,45.0,38.9,30.05,ENE,67,0.0,11.0,79,0.00,,,0.07,Weather View 32 v70,2013-01-06 10:07:00,
2013-01-06 02:12:00,45.0,38.9,30.06,NNE,22,1.0,11.0,79,0.00,,,0.07,Weather View 32 v70,2013-01-06 10:12:00,
2013-01-06 02:17:00,45.0,39.8,30.06,ENE,67,0.0,11.0,82,0.00,,,0.07,Weather View 32 v70,2013-01-06 10:17:00,
2013-01-06 02:22:00,45.0,38.9,30.06,NNE,22,0.0,11.0,79,0.00,,,0.07,Weather View 32 v70,2013-01-06 10:22:00,
2013-01-06 02:27:00,45.0,38.9,30.07,NE,45,0.0,11.0,79,0.00,,,0.07,Weather View 32 v70,2013-01-06 10:27:00,
2013-01-06 02:32:00,45.0,38.9,30.06,ENE,67,4.0,11.0,79,0.00,,,0.07,Weather View 32 v70,2013-01-06 10:32:00,
2013-01-06 02:37:00,44.0,37.9,30.06,NNE,22,0.0,12.0,79,0.00,,,0.07,Weather View 32 v70,2013-01-06 10:37:00,
2013-01-06 02:43:00,44.0,37.9,30.06,NNE,22,0.0,12.0,79,0.00,,,0.07,Weather View 32 v70,2013-01-06 10:43:00,
2013-01-06 02:44:00,44.0,37.9,30.07,NNE,22,2.0,12.0,79,0.00,,,0.07,Weather View 32 v70,2013-01-06 10:44:00,
2013-01-06 02:53:00,44.0,37.9,30.07,NE,45,2.0,12.0,79,0.00,,,0.07,Weather View 32 v70,2013-01-06 10:53:00,
2013-01-06 02:58:00,44.0,37.9,30.07,NNE,22,7.0,12.0,79,0.00,,,0.07,Weather View 32 v70,2013-01-06 10:58:00,
2013-01-06 03:03:00,44.0,37.9,30.07,NNE,22,2.0,12.0,79,0.00,,,0.07,Weather View 32 v70,2013-01-06 11:03:00,
2013-01-06 03:08:00,44.0,37.9,30.07,NNE,22,0.0,12.0,79,0.00,,,0.07,Weather View 32 v70,2013-01-06 11:08:00,
2013-01-06 03:13:00,45.0,39.8,30.07,NNE,22,0.0,12.0,82,0.00,,,0.07,Weather View 32 v70,2013-01-06 11:13:00,
2013-01-06 03:18:00,45.0,38.9,30.07,NE,45,0.0,12.0,79,0.00,,,0.07,Weather View 32 v70,2013-01-06 11:18:00,
2013-01-06 03:23:00,45.0,38.9,30.08,NE,45,5.0,12.0,79,0.00,,,0.07,Weather View 32 v70,2013-01-06 11:23:00,
2013-01-06 03:28:00,45.0,38.9,30.08,NE,45,3.0,12.0,79,0.00,,,0.07,Weather View 32 v70,2013-01-06 11:28:00,
2013-01-06 03:33:00,45.0,38.9,30.08,NNE,22,3.0,12.0,79,0.00,,,0.07,Weather View 32 v70,2013-01-06 11:33:00,
2013-01-06 03:38:00,45.0,38.9,30.08,NE,45,1.0,10.0,79,0.00,,,0.07,Weather View 32 v70,2013-01-06 11:38:00,
2013-01-06 03:44:00,45.0,38.9,30.08,NE,45,4.0,10.0,79,0.00,,,0.07,Weather View 32 v70,2013-01-06 11:44:00,
2013-01-06 03:48:00,45.0,39.8,30.08,NNE,22,3.0,10.0,82,0.00,,,0.07,Weather View 32 v70,2013-01-06 11:48:00,
2013-01-06 03:53:00,45.0,38.9,30.08,NE,45,1.0,10.0,79,0.00,,,0.07,Weather View 32 v70,2013-01-06 11:53:00,
2013-01-06 03:58:00,45.0,38.9,30.09,NE,45,4.0,10.0,79,0.00,,,0.07,Weather View 32 v70,2013-01-06 11:58:00,
2013-01-06 04:03:00,45.0,38.9,30.09,NE,45,5.0,9.0,79,0.00,,,0.07,Weather View 32 v70,2013-01-06 12:03:00,
2013-01-06 04:08:00,45.0,38.9,30.09,NNE,22,2.0,10.0,79,0.00,,,0.07,Weather View 32 v70,2013-01-06 12:08:00,
2013-01-06 04:13:00,45.0,38.9,30.09,NE,45,0.0,10.0,79,0.00,,,0.07,Weather View 32 v70,2013-01-06 12:13:00,
2013-01-06 04:18:00,45.0,38.9,30.09,NNE,22,3.0,10.0,79,0.00,,,0.07,Weather View 32 v70,2013-01-06 12:18:00,
2013-01-06 04:23:00,45.0,39.8,30.09,NNE,22,0.0,10.0,82,0.00,,,0.07,Weather View 32 v70,2013-01-06 12:23:00,
2013-01-06 04:28:00,45.0,38.9,30.09,NE,45,0.0,10.0,79,0.01,,,0.08,Weather View 32 v70,2013-01-06 12:28:00,
2013-01-06 04:33:00,45.0,38.9,30.09,ENE,67,0.0,10.0,79,0.01,,,0.08,Weather View 32 v70,2013-01-06 12:33:00,
2013-01-06 04:38:00,45.0,38.9,30.09,NE,45,0.0,10.0,79,0.01,,,0.08,Weather View 32 v70,2013-01-06 12:38:00,
2013-01-06 04:43:00,45.0,38.9,30.09,NNE,22,0.0,10.0,79,0.01,,,0.08,Weather View 32 v70,2013-01-06 12:43:00,
2013-01-06 04:44:00,45.0,38.9,30.09,NNE,22,0.0,10.0,79,0.01,,,0.08,Weather View 32 v70,2013-01-06 12:44:00,
2013-01-06 04:48:00,45.0,38.9,30.09,ENE,67,5.0,10.0,79,0.01,,,0.08,Weather View 32 v70,2013-01-06 12:48:00,
2013-01-06 04:53:00,45.0,38.9,30.09,NNE,22,0.0,10.0,79,0.01,,,0.08,Weather View 32 v70,2013-01-06 12:53:00,
2013-01-06 04:58:00,45.0,39.8,30.09,NNE,22,4.0,10.0,82,0.01,,,0.08,Weather View 32 v70,2013-01-06 12:58:00,
2013-01-06 05:03:00,45.0,38.9,30.09,NE,45,0.0,10.0,79,0.01,,,0.08,Weather View 32 v70,2013-01-06 13:03:00,
2013-01-06 05:08:00,45.0,38.9,30.09,NNE,22,1.0,9.0,79,0.01,,,0.08,Weather View 32 v70,2013-01-06 13:08:00,
2013-01-06 05:13:00,45.0,39.8,30.09,NE,45,3.0,9.0,82,0.01,,,0.08,Weather View 32 v70,2013-01-06 13:13:00,
2013-01-06 05:18:00,45.0,38.9,30.09,NNE,22,2.0,9.0,79,0.01,,,0.08,Weather View 32 v70,2013-01-06 13:18:00,
2013-01-06 05:23:00,45.0,38.9,30.09,NNE,22,0.0,9.0,79,0.01,,,0.08,Weather View 32 v70,2013-01-06 13:23:00,
2013-01-06 05:28:00,45.0,38.9,30.09,NE,45,1.0,9.0,79,0.00,,,0.08,Weather View 32 v70,2013-01-06 13:28:00,
2013-01-06 05:33:00,45.0,38.9,30.09,NE,45,0.0,9.0,79,0.00,,,0.08,Weather View 32 v70,2013-01-06 13:33:00,
2013-01-06 05:38:00,45.0,38.9,30.10,NNE,22,0.0,8.0,79,0.00,,,0.08,Weather View 32 v70,2013-01-06 13:38:00,
2013-01-06 05:43:00,45.0,38.9,30.10,NNE,22,0.0,8.0,79,0.00,,,0.08,Weather View 32 v70,2013-01-06 13:43:00,
2013-01-06 05:44:00,45.0,38.9,30.10,NNE,22,0.0,8.0,79,0.00,,,0.08,Weather View 32 v70,2013-01-06 13:44:00,
2013-01-06 05:48:00,46.0,40.8,30.10,NNE,22,0.0,8.0,82,0.00,,,0.08,Weather View 32 v70,2013-01-06 13:48:00,
2013-01-06 05:53:00,45.0,38.9,30.10,NE,45,2.0,7.0,79,0.00,,,0.08,Weather View 32 v70,2013-01-06 13:53:00,
2013-01-06 05:58:00,46.0,39.8,30.10,NNE,22,0.0,7.0,79,0.00,,,0.08,Weather View 32 v70,2013-01-06 13:58:00,
2013-01-06 06:03:00,46.0,39.8,30.11,NNE,22,4.0,9.0,79,0.00,,,0.08,Weather View 32 v70,2013-01-06 14:03:00,
2013-01-06 06:08:00,46.0,39.8,30.11,ENE,67,0.0,9.0,79,0.01,,,0.09,Weather View 32 v70,2013-01-06 14:08:00,
2013-01-06 06:13:00,46.0,39.8,30.11,NNE,22,2.0,9.0,79,0.01,,,0.09,Weather View 32 v70,2013-01-06 14:13:00,
2013-01-06 06:18:00,46.0,39.8,30.11,NNE,22,0.0,9.0,79,0.02,,,0.10,Weather View 32 v70,2013-01-06 14:18:00,
2013-01-06 06:23:00,46.0,40.8,30.11,NNE,22,0.0,9.0,82,0.02,,,0.10,Weather View 32 v70,2013-01-06 14:23:00,
2013-01-06 06:28:00,45.0,38.9,30.11,NNE,22,0.0,9.0,79,0.02,,,0.10,Weather View 32 v70,2013-01-06 14:28:00,
2013-01-06 06:33:00,45.0,38.9,30.11,NE,45,2.0,9.0,79,0.02,,,0.10,Weather View 32 v70,2013-01-06 14:33:00,
2013-01-06 06:38:00,45.0,38.9,30.12,NE,45,2.0,9.0,79,0.02,,,0.10,Weather View 32 v70,2013-01-06 14:38:00,
2013-01-06 06:43:00,45.0,38.9,30.12,NNE,22,0.0,9.0,79,0.03,,,0.11,Weather View 32 v70,2013-01-06 14:43:00,
2013-01-06 06:45:00,45.0,38.9,30.12,NNE,22,0.0,9.0,79,0.03,,,0.11,Weather View 32 v70,2013-01-06 14:45:00,
2013-01-06 06:48:00,45.0,38.9,30.12,NNE,22,0.0,9.0,79,0.03,,,0.11,Weather View 32 v70,2013-01-06 14:48:00,
2013-01-06 06:53:00,45.0,38.9,30.12,ENE,67,0.0,9.0,79,0.03,,,0.11,Weather View 32 v70,2013-01-06 14:53:00,
2013-01-06 06:58:00,45.0,39.8,30.11,NNE,22,0.0,9.0,82,0.03,,,0.11,Weather View 32 v70,2013-01-06 14:58:00,
2013-01-06 07:03:00,45.0,38.9,30.11,NNE,22,0.0,9.0,79,0.03,,,0.11,Weather View 32 v70,2013-01-06 15:03:00,
2013-01-06 07:07:00,45.0,38.2,30.11,NNE,22,0.0,8.0,77,0.02,,,0.11,Weather View 32 v70,2013-01-06 15:07:00,
2013-01-06 07:12:00,45.0,37.2,30.12,NNE,22,0.0,8.0,74,0.02,,,0.11,Weather View 32 v70,2013-01-06 15:12:00,
2013-01-06 07:17:00,45.0,34.3,30.12,NNE,22,0.0,8.0,66,0.01,,,0.11,Weather View 32 v70,2013-01-06 15:17:00,
2013-01-06 07:22:00,45.0,33.9,30.11,NNE,22,0.0,8.0,65,0.01,,,0.11,Weather View 32 v70,2013-01-06 15:22:00,
2013-01-06 07:32:00,45.0,33.5,30.11,NNE,22,0.0,8.0,64,0.01,,,0.11,Weather View 32 v70,2013-01-06 15:32:00,
2013-01-06 07:37:00,45.0,33.1,30.11,NNE,22,0.0,6.0,63,0.01,,,0.11,Weather View 32 v70,2013-01-06 15:37:00,
2013-01-06 07:44:00,45.0,32.7,30.11,NNE,22,0.0,6.0,62,0.00,,,0.11,Weather View 32 v70,2013-01-06 15:44:00,
2013-01-06 07:46:00,45.0,32.7,30.11,NNE,22,0.0,6.0,62,0.00,,,0.11,Weather View 32 v70,2013-01-06 15:46:00,
2013-01-06 07:49:00,45.0,32.7,30.12,NNE,22,1.0,6.0,62,0.00,,,0.11,Weather View 32 v70,2013-01-06 15:49:00,
2013-01-06 07:54:00,45.0,29.3,30.13,NNE,22,0.0,4.0,54,0.00,,,0.11,Weather View 32 v70,2013-01-06 15:54:00,
2013-01-06 07:59:00,45.0,32.3,30.13,NNE,22,0.0,4.0,61,0.00,,,0.11,Weather View 32 v70,2013-01-06 15:59:00,
2013-01-06 08:04:00,45.0,32.7,30.13,NNE,22,0.0,4.0,62,0.00,,,0.11,Weather View 32 v70,2013-01-06 16:04:00,
2013-01-06 08:09:00,45.0,32.7,30.13,NNE,22,0.0,4.0,62,0.00,,,0.11,Weather View 32 v70,2013-01-06 16:09:00,
2013-01-06 08:14:00,45.0,32.7,30.13,NNE,22,0.0,4.0,62,0.00,,,0.11,Weather View 32 v70,2013-01-06 16:14:00,
2013-01-06 08:18:00,46.0,33.3,30.12,NNE,22,0.0,4.0,61,0.00,,,0.11,Weather View 32 v70,2013-01-06 16:18:00,
2013-01-06 08:23:00,46.0,33.3,30.13,NNE,22,0.0,4.0,61,0.00,,,0.11,Weather View 32 v70,2013-01-06 16:23:00,
2013-01-06 08:28:00,46.0,15.5,30.13,NNE,22,0.0,4.0,29,0.00,,,0.11,Weather View 32 v70,2013-01-06 16:28:00,
2013-01-06 08:33:00,46.0,33.3,30.13,NNE,22,0.0,4.0,61,0.00,,,0.11,Weather View 32 v70,2013-01-06 16:33:00,
2013-01-06 08:38:00,46.0,33.3,30.13,NNE,22,0.0,4.0,61,0.00,,,0.11,Weather View 32 v70,2013-01-06 16:38:00,
2013-01-06 08:44:00,46.0,32.9,30.13,NNE,22,0.0,4.0,60,0.00,,,0.11,Weather View 32 v70,2013-01-06 16:44:00,
2013-01-06 08:49:00,46.0,33.3,30.13,NNE,22,0.0,4.0,61,0.00,,,0.11,Weather View 32 v70,2013-01-06 16:49:00,
2013-01-06 08:54:00,46.0,33.3,30.14,NNE,22,0.0,4.0,61,0.00,,,0.11,Weather View 32 v70,2013-01-06 16:54:00,
2013-01-06 08:59:00,46.0,33.7,30.14,NNE,22,0.0,3.0,62,0.00,,,0.11,Weather View 32 v70,2013-01-06 16:59:00,
2013-01-06 09:03:00,46.0,24.7,30.15,NNE,22,1.0,6.0,43,0.00,,,0.11,Weather View 32 v70,2013-01-06 17:03:00,
2013-01-06 09:08:00,46.0,33.3,30.15,NNE,22,0.0,6.0,61,0.00,,,0.11,Weather View 32 v70,2013-01-06 17:08:00,
2013-01-06 09:13:00,46.0,33.7,30.15,NNE,22,0.0,6.0,62,0.00,,,0.11,Weather View 32 v70,2013-01-06 17:13:00,
2013-01-06 09:18:00,46.0,33.3,30.15,NNE,22,0.0,6.0,61,0.00,,,0.11,Weather View 32 v70,2013-01-06 17:18:00,
2013-01-06 09:23:00,46.0,32.9,30.15,NNE,22,0.0,6.0,60,0.00,,,0.11,Weather View 32 v70,2013-01-06 17:23:00,
2013-01-06 09:28:00,46.0,32.9,30.15,ENE,67,0.0,6.0,60,0.00,,,0.11,Weather View 32 v70,2013-01-06 17:28:00,
2013-01-06 09:34:00,46.0,32.5,30.15,NE,45,0.0,6.0,59,0.00,,,0.11,Weather View 32 v70,2013-01-06 17:34:00,
2013-01-06 09:39:00,46.0,-49.6,30.15,NE,45,0.0,6.0,1,0.00,,,0.11,Weather View 32 v70,2013-01-06 17:39:00,
2013-01-06 09:44:00,46.0,32.0,30.15,NE,45,0.0,6.0,58,0.00,,,0.11,Weather View 32 v70,2013-01-06 17:44:00,
2013-01-06 09:47:00,46.0,32.0,30.15,NE,45,0.0,6.0,58,0.00,,,0.11,Weather View 32 v70,2013-01-06 17:47:00,
2013-01-06 09:49:00,47.0,33.0,30.15,NE,45,0.0,6.0,58,0.00,,,0.11,Weather View 32 v70,2013-01-06 17:49:00,
2013-01-06 09:53:00,47.0,33.0,30.15,NE,45,0.0,6.0,58,0.00,,,0.11,Weather View 32 v70,2013-01-06 17:53:00,
2013-01-06 09:58:00,47.0,33.0,30.15,NE,45,0.0,6.0,58,0.00,,,0.11,Weather View 32 v70,2013-01-06 17:58:00,
2013-01-06 10:03:00,47.0,33.0,30.16,ENE,67,2.0,4.0,58,0.00,,,0.11,Weather View 32 v70,2013-01-06 18:03:00,
2013-01-06 10:08:00,47.0,33.0,30.16,NE,45,4.0,6.0,58,0.00,,,0.11,Weather View 32 v70,2013-01-06 18:08:00,
2013-01-06 10:13:00,47.0,-49.0,30.16,NE,45,0.0,6.0,1,0.00,,,0.11,Weather View 32 v70,2013-01-06 18:13:00,
2013-01-06 10:19:00,47.0,32.5,30.16,NNE,22,0.0,6.0,57,0.00,,,0.11,Weather View 32 v70,2013-01-06 18:19:00,
2013-01-06 10:24:00,48.0,33.5,30.15,ENE,67,1.0,6.0,57,0.00,,,0.11,Weather View 32 v70,2013-01-06 18:24:00,
2013-01-06 10:29:00,48.0,33.0,30.15,ENE,67,1.0,6.0,56,0.00,,,0.11,Weather View 32 v70,2013-01-06 18:29:00,
2013-01-06 10:34:00,48.0,33.0,30.15,NE,45,0.0,6.0,56,0.00,,,0.11,Weather View 32 v70,2013-01-06 18:34:00,
2013-01-06 10:39:00,48.0,32.6,30.15,NE,45,1.0,6.0,55,0.00,,,0.11,Weather View 32 v70,2013-01-06 18:39:00,
2013-01-06 10:44:00,49.0,33.5,30.15,NE,45,0.0,6.0,55,0.00,,,0.11,Weather View 32 v70,2013-01-06 18:44:00,
2013-01-06 10:48:00,49.0,33.5,30.15,NE,45,0.0,6.0,55,0.00,,,0.11,Weather View 32 v70,2013-01-06 18:48:00,
2013-01-06 10:53:00,49.0,33.0,30.14,NE,45,0.0,6.0,54,0.00,,,0.11,Weather View 32 v70,2013-01-06 18:53:00,
2013-01-06 10:55:00,49.0,33.0,30.14,NE,45,0.0,6.0,54,0.00,,,0.11,Weather View 32 v70,2013-01-06 18:55:00,